Location: Bijele Vode
(45.2833°N, 16.2000°E)
Time: 10:05:54
(UTC+00:00)

CZ-2C R/B - Visible Passes

Search period start: 17 January 2021 00:00
Search period end: 27 January 2021 00:00
Orbit: 391 x 585 km, 35.0° (Epoch: 16 January)

Date Brightness Start Highest point End Pass type
(mag) Time Alt. Az. Time Alt. Az. Time Alt. Az.
19 Jan 3.9 05:37:15 10° SSW 05:39:09 13° SSE 05:40:59 10° SE visible
20 Jan 3.8 05:10:18 10° SSW 05:12:23 14° SSE 05:14:25 10° SE visible
21 Jan 3.8 04:43:21 10° SSW 04:45:37 14° SSE 04:47:49 10° SE visible
22 Jan 3.6 04:17:26 13° S 04:18:50 15° SSE 04:21:11 10° SE visible
23 Jan 3.6 03:52:12 16° SSE 03:52:12 16° SSE 03:54:32 10° SE visible
23 Jan 3.4 05:28:03 10° SW 05:30:59 19° S 05:33:46 10° SE visible
24 Jan 4.0 03:26:54 13° SE 03:26:54 13° SE 03:27:51 10° SE visible
24 Jan 3.3 05:01:13 10° SW 05:04:11 19° S 05:07:05 10° SE visible
25 Jan 3.2 04:35:51 16° SSW 04:37:22 20° S 04:40:21 10° SE visible
26 Jan 3.2 04:10:27 20° S 04:10:32 20° S 04:13:37 10° SE visible
26 Jan 3.7 05:47:35 10° SW 05:49:23 12° SSW 05:51:09 10° S visible
